TimeEST,TemperatureF,Dew PointF,Humidity,Sea Level PressureIn,VisibilityMPH,Wind Direction,Wind SpeedMPH,Gust SpeedMPH,PrecipitationIn,Events,Conditions,WindDirDegrees,DateUTC
12:02 AM,17.6,5.0,58,30.05,10.0,WNW,11.5,19.6,N/A,,Overcast,300,2013-02-17 05:02:00
12:53 AM,15.1,5.0,64,30.09,10.0,WNW,9.2,-,N/A,,Scattered Clouds,300,2013-02-17 05:53:00
1:53 AM,14.0,3.0,62,30.10,10.0,WNW,5.8,-,N/A,,Scattered Clouds,290,2013-02-17 06:53:00
2:53 AM,15.1,5.0,64,30.11,10.0,WNW,8.1,-,N/A,,Overcast,300,2013-02-17 07:53:00
3:53 AM,14.0,3.9,64,30.11,10.0,WNW,5.8,-,N/A,,Overcast,300,2013-02-17 08:53:00
4:53 AM,12.9,3.9,67,30.12,10.0,WNW,4.6,-,N/A,,Clear,300,2013-02-17 09:53:00
5:53 AM,10.0,3.9,76,30.14,10.0,Calm,Calm,-,N/A,,Clear,0,2013-02-17 10:53:00
6:53 AM,10.9,3.9,73,30.17,10.0,WNW,6.9,-,N/A,,Mostly Cloudy,300,2013-02-17 11:53:00
8:53 AM,15.1,7.0,70,30.20,10.0,WNW,9.2,-,N/A,,Clear,290,2013-02-17 13:53:00
9:53 AM,18.0,9.0,68,30.22,10.0,NW,8.1,-,N/A,,Clear,320,2013-02-17 14:53:00
10:53 AM,19.9,10.0,65,30.23,10.0,NW,8.1,-,N/A,,Scattered Clouds,310,2013-02-17 15:53:00
11:53 AM,21.0,10.9,65,30.25,10.0,NW,10.4,-,N/A,,Scattered Clouds,310,2013-02-17 16:53:00
12:53 PM,19.9,8.1,60,30.25,10.0,WNW,10.4,-,N/A,,Scattered Clouds,300,2013-02-17 17:53:00
1:53 PM,21.9,8.1,55,30.22,10.0,NW,10.4,-,N/A,,Overcast,320,2013-02-17 18:53:00
2:53 PM,23.0,7.0,50,30.23,10.0,NW,6.9,-,N/A,,Overcast,320,2013-02-17 19:53:00
3:53 PM,24.1,7.0,48,30.23,10.0,NW,6.9,-,N/A,,Mostly Cloudy,320,2013-02-17 20:53:00
4:53 PM,24.1,6.1,46,30.24,10.0,NW,5.8,-,N/A,,Mostly Cloudy,320,2013-02-17 21:53:00
5:53 PM,23.0,7.0,50,30.26,10.0,NW,8.1,-,N/A,,Scattered Clouds,310,2013-02-17 22:53:00
6:53 PM,21.0,10.0,63,30.27,10.0,Calm,Calm,-,N/A,,Clear,0,2013-02-17 23:53:00
7:53 PM,17.1,10.0,74,30.28,10.0,Calm,Calm,-,N/A,,Clear,0,2013-02-18 00:53:00
8:53 PM,15.1,10.0,80,30.28,10.0,Calm,Calm,-,N/A,,Clear,0,2013-02-18 01:53:00
9:53 PM,14.0,8.1,77,30.28,10.0,Calm,Calm,-,N/A,,Clear,0,2013-02-18 02:53:00
10:53 PM,14.0,8.1,77,30.29,10.0,Calm,Calm,-,N/A,,Clear,0,2013-02-18 03:53:00